Location: Colonia Mina de C?rbuni
(46.1667°N, 22.7167°E)
Time: 21:49:54
(UTC+00:00)

Tiros 1 - Pass Details

Date: 24 April 2024
Orbit: 624 x 657 km, 48.4° (Epoch: 20 May)

Event Time Altitude Azimuth Distance (km) Brightness Sun altitude
Rises 22:44:42 0° 263° (W) 2,935 - -30.4°
Reaches altitude 10° 22:47:03 10° 266° (W) 2,022 - -30.4°
Maximum altitude 22:51:42 71° 351° (N) 668 - -30.3°
Exits shadow 22:55:25 16° 74° (ENE) 1,670 9.5 -30.2°
Drops below altitude 10° 22:56:18 10° 76° (ENE) 2,005 9.9 -30.2°
Sets 22:58:38 0° 78° (ENE) 2,909 10.8 -30.1°
